• Em Portugal
  • Lista de países
  • Para 7 dias
  • Temperatura da água
  • Mapas de satélite
  • Mapa do tempo
  • Widgets de tempo
  • user-avatar
    Iniciar Sessão

    Previsão horária em Rio Branco

    Hoje, 22 Janeiro, Segunda-feira

    Tempo Temperatura Precipitação Vento Pressão Humidade
    00:00 +23°C° 0 mm 0 m/s 743 mmHg 93%
    01:00 +23°C° 0 mm 0 m/s 743 mmHg 94%
    02:00 +23°C° 0 mm 0 m/s 743 mmHg 95%
    03:00 +22°C° 0 mm 0 m/s 743 mmHg 95%
    04:00 +22°C° 0 mm 0 m/s 743 mmHg 96%
    05:00 +23°C° 0 mm 0 m/s 744 mmHg 93%
    06:00 +24°C° 0 mm 0 m/s 744 mmHg 91%
    07:00 +25°C° 0 mm 0 m/s 745 mmHg 88%
    08:00 +26°C° 1,6 mm 0 m/s 745 mmHg 86%
    09:00 +29°C° 1,6 mm 1 m/s 745 mmHg 84%
    10:00 +30°C° 1,6 mm 1 m/s 745 mmHg 82%
    11:00 +32°C° 0,5 mm 1 m/s 744 mmHg 72%
    12:00 +33°C° 0,5 mm 1 m/s 743 mmHg 61%
    13:00 +35°C° 0,5 mm 1 m/s 743 mmHg 51%
    14:00 +34°C° 0,1 mm 1 m/s 742 mmHg 54%
    15:00 +34°C° 0,1 mm 1 m/s 742 mmHg 57%
    16:00 +33°C° 0,1 mm 1 m/s 741 mmHg 60%
    17:00 +31°C° 0,5 mm 1 m/s 742 mmHg 71%
    18:00 +29°C° 0,5 mm 1 m/s 742 mmHg 82%
    19:00 +26°C° 0,5 mm 1 m/s 742 mmHg 94%
    20:00 +26°C° 0 mm 1 m/s 743 mmHg 94%
    21:00 +26°C° 0 mm 1 m/s 743 mmHg 95%
    22:00 +26°C° 0 mm 1 m/s 744 mmHg 96%
    23:00 +25°C° 0,3 mm 1 m/s 743 mmHg 96%

    Amanhã, 23 Janeiro, Terça-feira

    Tempo Temperatura Precipitação Vento Pressão Humidade
    00:00 +25°C° 0,3 mm 1 m/s 743 mmHg 96%
    01:00 +25°C° 0,3 mm 1 m/s 743 mmHg 96%
    02:00 +25°C° 0,4 mm 1 m/s 743 mmHg 97%
    03:00 +25°C° 0,4 mm 1 m/s 743 mmHg 97%
    04:00 +25°C° 0,4 mm 1 m/s 743 mmHg 97%
    05:00 +25°C° 0,2 mm 1 m/s 743 mmHg 96%
    06:00 +25°C° 0,2 mm 1 m/s 744 mmHg 96%
    07:00 +26°C° 0,2 mm 1 m/s 744 mmHg 95%
    08:00 +26°C° 0,3 mm 1 m/s 745 mmHg 92%
    09:00 +27°C° 0,3 mm 1 m/s 745 mmHg 89%
    10:00 +28°C° 0,3 mm 1 m/s 746 mmHg 86%
    11:00 +30°C° 0 mm 1 m/s 745 mmHg 75%
    12:00 +32°C° 0 mm 1 m/s 744 mmHg 64%
    13:00 +34°C° 0 mm 1 m/s 743 mmHg 52%
    14:00 +34°C° 0 mm 1 m/s 742 mmHg 55%
    15:00 +31°C° 0 mm 0 m/s 742 mmHg 58%
    16:00 +31°C° 0 mm 0 m/s 741 mmHg 61%
    17:00 +29°C° 0,1 mm 0 m/s 741 mmHg 67%
    18:00 +27°C° 0,1 mm 0 m/s 742 mmHg 73%
    19:00 +25°C° 0,1 mm 0 m/s 742 mmHg 79%
    20:00 +25°C° 0,5 mm 0 m/s 743 mmHg 83%
    21:00 +24°C° 0,5 mm 0 m/s 743 mmHg 87%
    22:00 +26°C° 0,5 mm 1 m/s 744 mmHg 92%
    23:00 +23°C° 0,1 mm 0 m/s 744 mmHg 93%

    Depois de amanhã, 24 Janeiro, Quarta-feira

    Tempo Temperatura Precipitação Vento Pressão Humidade
    00:00 +23°C° 0,1 mm 0 m/s 743 mmHg 93%
    01:00 +23°C° 0,1 mm 0 m/s 743 mmHg 94%
    02:00 +23°C° 0,3 mm 0 m/s 743 mmHg 95%
    03:00 +23°C° 0,3 mm 0 m/s 743 mmHg 96%
    04:00 +23°C° 0,3 mm 0 m/s 743 mmHg 96%
    05:00 +23°C° 0 mm 0 m/s 744 mmHg 96%
    06:00 +23°C° 0 mm 0 m/s 744 mmHg 95%
    07:00 +24°C° 0 mm 0 m/s 745 mmHg 95%
    08:00 +25°C° 1,1 mm 0 m/s 745 mmHg 91%
    09:00 +26°C° 1,1 mm 0 m/s 746 mmHg 88%
    10:00 +29°C° 1,1 mm 1 m/s 746 mmHg 85%
    11:00 +28°C° 1,5 mm 0 m/s 745 mmHg 80%
    12:00 +30°C° 1,5 mm 0 m/s 744 mmHg 75%
    13:00 +31°C° 1,5 mm 0 m/s 744 mmHg 71%
    14:00 +31°C° 0,5 mm 0 m/s 743 mmHg 67%
    15:00 +31°C° 0,5 mm 0 m/s 742 mmHg 64%
    16:00 +31°C° 0,5 mm 0 m/s 741 mmHg 60%
    17:00 +31°C° 0 mm 1 m/s 742 mmHg 68%
    18:00 +29°C° 0 mm 1 m/s 742 mmHg 76%
    19:00 +27°C° 0 mm 1 m/s 742 mmHg 84%
    20:00 +27°C° 0 mm 1 m/s 743 mmHg 85%
    21:00 +27°C° 0 mm 1 m/s 743 mmHg 87%
    22:00 +26°C° 0 mm 1 m/s 744 mmHg 88%
    23:00 +26°C° 0 mm 1 m/s 744 mmHg 89%

    25 Janeiro, Quinta-feira

    Tempo Temperatura Precipitação Vento Pressão Humidade
    00:00 +26°C° 0 mm 1 m/s 743 mmHg 89%
    01:00 +25°C° 0 mm 1 m/s 743 mmHg 90%
    02:00 +25°C° 0 mm 1 m/s 743 mmHg 90%
    03:00 +23°C° 0 mm 0 m/s 743 mmHg 91%
    04:00 +23°C° 0 mm 0 m/s 743 mmHg 91%
    05:00 +25°C° 0 mm 1 m/s 744 mmHg 89%
    06:00 +26°C° 0 mm 1 m/s 744 mmHg 87%
    07:00 +27°C° 0 mm 1 m/s 745 mmHg 85%
    08:00 +28°C° 0,3 mm 1 m/s 745 mmHg 80%
    09:00 +30°C° 0,3 mm 1 m/s 746 mmHg 75%
    10:00 +32°C° 0,3 mm 1 m/s 746 mmHg 70%
    11:00 +31°C° 1,2 mm 1 m/s 745 mmHg 73%
    12:00 +31°C° 1,2 mm 1 m/s 744 mmHg 77%
    13:00 +31°C° 1,2 mm 2 m/s 743 mmHg 81%
    14:00 +31°C° 0,9 mm 1 m/s 743 mmHg 79%
    15:00 +31°C° 0,9 mm 1 m/s 742 mmHg 78%
    16:00 +31°C° 0,9 mm 1 m/s 741 mmHg 76%
    17:00 +30°C° 0,8 mm 1 m/s 741 mmHg 81%
    18:00 +28°C° 0,8 mm 1 m/s 742 mmHg 87%
    19:00 +25°C° 0,8 mm 0 m/s 742 mmHg 93%
    20:00 +26°C° 0 mm 1 m/s 743 mmHg 93%
    21:00 +26°C° 0 mm 1 m/s 743 mmHg 94%
    22:00 +26°C° 0 mm 1 m/s 744 mmHg 95%
    23:00 +25°C° 0 mm 1 m/s 743 mmHg 95%

    26 Janeiro, Sexta-feira

    Tempo Temperatura Precipitação Vento Pressão Humidade
    00:00 +25°C° 0 mm 1 m/s 743 mmHg 95%
    01:00 +24°C° 0 mm 1 m/s 743 mmHg 95%
    02:00 +24°C° 0 mm 1 m/s 743 mmHg 96%
    03:00 +24°C° 0 mm 1 m/s 743 mmHg 96%
    04:00 +24°C° 0 mm 1 m/s 743 mmHg 96%
    05:00 +24°C° 0,1 mm 1 m/s 743 mmHg 95%
    06:00 +25°C° 0,1 mm 1 m/s 744 mmHg 94%
    07:00 +26°C° 0,1 mm 1 m/s 745 mmHg 92%
    08:00 +27°C° 0,7 mm 1 m/s 745 mmHg 88%
    09:00 +29°C° 0,7 mm 1 m/s 745 mmHg 85%
    10:00 +30°C° 0,7 mm 1 m/s 745 mmHg 81%
    11:00 +30°C° 1 mm 1 m/s 744 mmHg 82%
    12:00 +30°C° 1 mm 1 m/s 743 mmHg 83%
    13:00 +31°C° 1 mm 1 m/s 742 mmHg 85%
    14:00 +30°C° 0,6 mm 1 m/s 741 mmHg 83%
    15:00 +30°C° 0,6 mm 1 m/s 741 mmHg 82%
    16:00 +28°C° 0,6 mm 0 m/s 740 mmHg 81%
    17:00 +27°C° 0 mm 0 m/s 740 mmHg 84%
    18:00 +26°C° 0 mm 0 m/s 741 mmHg 88%
    19:00 +25°C° 0 mm 0 m/s 741 mmHg 92%
    20:00 +25°C° 0 mm 0 m/s 742 mmHg 93%
    21:00 +24°C° 0 mm 0 m/s 742 mmHg 93%
    22:00 +26°C° 0 mm 1 m/s 743 mmHg 94%
    23:00 +26°C° 0 mm 1 m/s 742 mmHg 94%

    27 Janeiro, Sábado

    Tempo Temperatura Precipitação Vento Pressão Humidade
    00:00 +26°C° 0 mm 1 m/s 742 mmHg 94%
    01:00 +25°C° 0 mm 1 m/s 742 mmHg 94%
    02:00 +23°C° 0 mm 0 m/s 742 mmHg 94%
    03:00 +23°C° 0 mm 0 m/s 742 mmHg 94%
    04:00 +23°C° 0 mm 0 m/s 741 mmHg 94%
    05:00 +25°C° 0 mm 1 m/s 742 mmHg 92%
    06:00 +26°C° 0 mm 1 m/s 743 mmHg 90%
    07:00 +26°C° 0 mm 1 m/s 744 mmHg 89%
    08:00 +28°C° 0,2 mm 1 m/s 744 mmHg 82%
    09:00 +29°C° 0,2 mm 2 m/s 744 mmHg 75%
    10:00 +31°C° 0,2 mm 2 m/s 744 mmHg 69%
    11:00 +32°C° 0,3 mm 2 m/s 743 mmHg 64%
    12:00 +34°C° 0,3 mm 2 m/s 742 mmHg 59%
    13:00 +35°C° 0,3 mm 2 m/s 741 mmHg 54%
    14:00 +35°C° 0,5 mm 2 m/s 740 mmHg 60%
    15:00 +33°C° 0,5 mm 1 m/s 740 mmHg 66%
    16:00 +33°C° 0,5 mm 1 m/s 739 mmHg 71%
    17:00 +31°C° 1,9 mm 1 m/s 739 mmHg 79%
    18:00 +29°C° 1,9 mm 1 m/s 740 mmHg 87%
    19:00 +27°C° 1,9 mm 1 m/s 740 mmHg 95%
    20:00 +26°C° 0,4 mm 1 m/s 741 mmHg 96%
    21:00 +26°C° 0,4 mm 1 m/s 741 mmHg 96%
    22:00 +26°C° 0,4 mm 1 m/s 742 mmHg 97%
    23:00 +26°C° 0 mm 1 m/s 742 mmHg 97%
    Mostrar mais